Regional Weather Roundup
Issued by NWS State College, PA

Home | Current Version | Previous Version | Graphics & Text | Print | Product List | Glossary Off
Versions: 1 2 3 4 5 6 7 8 9 10 11 12 13 14 15 16 17 18 19 20 21 22 23 24 25 26 27 28 29 30 31 32 33 34 35 36 37 38 39 40 41 42 43 44 45 46 47 48 49 50

000
ASUS41 KCTP 270010
RWRCTP

REGIONAL WEATHER ROUNDUP
NATIONAL WEATHER SERVICE STATE COLLEGE PA
800 PM EDT MON SEP 26 2016

Note: "fair" indicates few or no clouds below 12,000 feet with no
significant weather and/or obstructions to visibility.

* = STATION THAT DOES NOT REPORT PRECIPITATION /E.G. RAIN...SNOW...ETC/
    THUNDER OR FOG.

PAZ002>004-007>009-013>016-020>023-029>032-270100-
WESTERN PENNSYLVANIA

CITY           SKY/WX    TMP DP  RH WIND       PRES   REMARKS
ERIE           MOCLDY    62  58  86 SW10      29.93R
MEADVILLE      CLOUDY    57  54  89 SW6       29.97R FOG
FRANKLIN*        N/A     55  54  94 SW5       29.99R
NEW CASTLE     MOCLDY    60  59  96 CALM      29.99R
BEAVER COUNTY  MOCLDY    61  57  88 SW5       29.99R
BUTLER*        CLOUDY    61  55  82 CALM      30.01R
PITTSBURGH INT CLOUDY    63  60  90 W3        29.98R
PITTSBURGH     CLOUDY    64  56  75 W7        29.98S
INDIANA*       CLOUDY    64  61  88 W7        30.01R
LATROBE        CLOUDY    64  59  82 W7        30.00R
WASHINGTON CO* CLOUDY    63  57  82 W3        30.00S
$$

PAZ004>006-010>012-017>019-024>028-033>037-041-042-045-046-049>053-270100-
CENTRAL PENNSYLVANIA

CITY           SKY/WX    TMP DP  RH WIND       PRES   REMARKS
BRADFORD       LGT RAIN  59  58  96 VRB6      29.97R
DUBOIS         CLOUDY    61  57  87 W9        29.98R
CLEARFIELD     RAIN      62  62 100 CALM      29.97S FOG
JOHNSTOWN      CLOUDY    62  62 100 W5        30.00R
ALTOONA        LGT RAIN  61  61 100 W3        29.99R FOG
STATE COLLEGE  CLOUDY    61  59  94 SW3       29.98S
WILLIAMSPORT   LGT RAIN  62  60  93 NE8       29.97S FOG
SELINSGROVE    CLOUDY    62  62 100 S10       30.00R FOG
FT INDIANTOWN  CLOUDY    64  59  85 S2        30.02S
CAPITAL CITY   CLOUDY    65  58  78 CALM      30.01S
HARRISBURG     CLOUDY    66  60  81 VRB5      30.00S
YORK           CLOUDY    65  58  78 S7        30.01F
$$

PAZ038>040-043-044-047-048-054-055-060>062-067>071-270100-
EASTERN PENNSYLVANIA

CITY           SKY/WX    TMP DP  RH WIND       PRES   REMARKS
SCRANTON       CLOUDY    63  53  70 SW10      30.01S
MOUNT POCONO   CLOUDY    58  48  69 S9        30.06R
ALLENTOWN      CLOUDY    67  49  52 S5        30.04R
QUAKERTOWN*    CLOUDY    66  50  55 S3        30.05R
READING        CLOUDY    65  53  65 S3        30.02S
LANCASTER      CLOUDY    66  57  72 SE7       30.02S
COATESVILLE    CLOUDY    64  55  72 VRB5      30.05F
POTTSTOWN      CLOUDY    66  52  60 CALM      30.05S
BLUE BELL      CLOUDY    64  52  63 S3        30.03F
DOYLESTOWN     CLOUDY    68  52  56 S5        30.04S
WILLOW GROVE   NOT AVBL
NORTH PHILA    CLOUDY    69  55  60 VRB6      30.07R
PHILADELPHIA   CLOUDY    69  54  58 SE8       30.05S
$$




USA.gov is the U.S. government's official web portal to all federal, state and local government web resources and services.